Location: Bayshore Village Mobile Home Park
(26.6945°N, 81.8642°W)
Time: 22:51:27
(UTC+00:00)

Cosmos 1975 Rocket - Pass Details

Date: 17 June 2021
Orbit: 604 x 633 km, 82.5° (Epoch: 31 July)

Event Time Altitude Azimuth Distance (km) Brightness Sun altitude
Exits shadow 02:09:37 36° 75° (ENE) 963 3.7 -20.6°
Drops below altitude 10° 02:13:08 10° 24° (NNE) 1,969 5.8 -21.2°
Sets 02:15:29 0° 16° (NNE) 2,882 6.8 -21.6°
